Regional Weather Roundup
Issued by NWS Goodland, KS

Home | Current Version | Previous Version | Graphics & Text | Print | Product List | Glossary On
Versions: 1 2 3 4 5 6 7 8 9 10 11 12 13 14 15 16 17 18 19 20 21 22 23 24 25 26 27 28 29 30 31 32 33 34 35 36 37 38 39 40 41 42 43 44 45 46 47 48 49 50
000
ASUS43 KGLD 271608
RWRGLD

GOODLAND FORECAST AREA HOURLY WEATHER ROUNDUP
NATIONAL WEATHER SERVICE GOODLAND KS
900 AM MST FRI FEB 27 2015

...OFFICIAL OBSERVATIONS...

CITY           SKY/WX    TMP DP  RH WIND       PRES   REMARKS
GOODLAND KS    LGT SNOW  12   8  84 S18       30.28S FOG     WCI  -6
HILL CITY KS   CLOUDY    13   0  56 S7        30.48F
IMPERIAL NEB   CLOUDY    12   3  67 SE15      30.31F HAZE    WCI  -4
MCCOOK NEB     PTSUNNY   15   1  53 SE14      30.42S WCI   0
AKRON CO       CLOUDY    11   6  81 SE21      30.13S HAZE    WCI  -8
BURLINGTON CO  LGT SNOW  12   6  77 S22       30.21F VSB 1   WCI  -7
LIMON CO       MIX PCPN   7   3  84 SE24      30.07S FOG     WCI -14
$$

...UNOFFICIAL OBSERVATIONS...

CITY           SKY/WX    TMP DP  RH WIND       PRES   REMARKS
COLBY KS       CLOUDY    12  10  92 SE13      30.36S FOG     WCI  -3
GOVE KS          N/A     13  32 100 MISG        N/A
LENORA KS        N/A     11  32 100 S12         N/A  WCI  -3
NORTON KS      CLOUDY    12   0  57 SE7       30.45F
SHARON SPRINGS   N/A     14  10  85 S16G23      N/A  WCI  -2
KIT CARSON CO    N/A     10   6  85 MISG        N/A
YUMA CO          N/A     12   7  79 S10G21      N/A  WCI  -1
$$



USA.gov is the U.S. government's official web portal to all federal, state and local government web resources and services.